Volver al catálogo

NOAA 14

ActivoMeteoSSO
NORAD 23455·PAYLOAD·🇺🇸 United States

Lanzado Dec 30, 1994 desde Vandenberg Space Force Base

Loading…

Próximos Pases (próximas 24 horas)

TLE

ActualizadoSource: Space-Track

Época: Sep 14, 2026, 14:17 UTC

1 23455U 94089A   26257.59558768  .00000020  00000-0  31908-4 0  9991
2 23455  98.5242 223.0954 0009302 180.2557 179.8614 14.14685015635845

Sigue NOAA 14 en tiempo real con AllMySat

Download on the App Store